Regional Weather Roundup
Issued by NWS Jackson, KY

Home | Current Version | Previous Version | Graphics & Text | Print | Product List | Glossary On
Versions: 1 2 3 4 5 6 7 8 9 10 11 12 13 14 15 16 17 18 19 20 21 22 23 24 25 26 27 28 29 30 31 32 33 34 35 36 37 38 39 40 41 42 43 44 45 46 47 48 49 50
000
ASUS43 KJKL 251819
RWRJKL

EAST KENTUCKY HOURLY WEATHER ROUNDUP
NATIONAL WEATHER SERVICE JACKSON KY
200 PM EDT FRI JUL 25 2014

NOTE: "FAIR" INDICATES FEW OR NO CLOUDS BELOW 12,000 FEET WITH
NO SIGNIFICANT WEATHER AND/OR OBSTRUCTIONS TO VISIBILITY.

* THESE REPORTS ARE NOT UNDER NWS QUALITY CONTROL AND MAY NOT
  REPORT WEATHER SUCH AS PRECIPITATION AND FOG.

KYZ079-080-083-085-087-088-110-112-115-119-120-251900
...EASTERN KENTUCKY...

CITY           SKY/WX    TMP DP  RH WIND       PRES   REMARKS
JACKSON        PTSUNNY   73  57  57 CALM      30.10F
6HR MIN TEMP:  60; 6HR MAX TEMP:  73;

LONDON         MOSUNNY   73  60  63 SE3       30.09F
6HR MIN TEMP:  61; 6HR MAX TEMP:  74;

SOMERSET*      SUNNY     72  63  73 CALM      30.09F
MONTICELLO*    SUNNY     75  63  66 NE6       30.09F
6HR MIN TEMP:  61; 6HR MAX TEMP:  74;

WILLIAMSBURG*  MOSUNNY   72  64  78 CALM      30.09F
MIDDLESBORO*   MOSUNNY   78  64  61 E5        30.07F
6HR MIN TEMP:  62; 6HR MAX TEMP:  78;

HARLAN APT*    MOCLDY    77  61  57 MISG      30.09S
BLACK MTN*       N/A     68  59  73 E3          N/A
PIKEVILLE APT* PTSUNNY   72  59  64 CALM      30.10S
BIG SANDY*     MOCLDY    75  61  61 CALM      30.09F
6HR MIN TEMP:  62; 6HR MAX TEMP:  76;

MOREHEAD APT*  MOCLDY    75  57  53 S5G12     30.10F
ASHLAND*         N/A    N/A N/A N/A CALM        N/A
$$

KYZ035-036-041-042-044-050-067-078-099-251900
...CENTRAL KENTUCKY...

CITY           SKY/WX    TMP DP  RH WIND       PRES   REMARKS
MT STERLING*   PTSUNNY   75  57  53 CALM      30.09F
FLEMING/MASON* SUNNY     76  57  50 E6        30.08F
DANVILLE*      MOSUNNY   77  59  53 SE5       30.08F
RICHMOND*      MOSUNNY   77  55  47 E5        30.07F
LEXINGTON      SUNNY     78  55  44 VRB3      30.07F
6HR MIN TEMP:  62; 6HR MAX TEMP:  79;

FRANKFORT      SUNNY     81  54  39 VRB5      30.05F
6HR MIN TEMP:  58; 6HR MAX TEMP:  81;

$$

KYZ091>093-OHZ055-061-077-WVZ005-015-034-035-042-251900
...SOUTHERN OHIO/WEST VIRGINIA...

CITY           SKY/WX    TMP DP  RH WIND       PRES   REMARKS
COVINGTON      MOSUNNY   77  53  43 N3        30.07F
COLUMBUS       PTSUNNY   79  53  40 VRB7      30.07F
DAYTON         CLOUDY    73  52  47 CALM      30.08F
WILMINGTON     PTSUNNY   74  54  49 W7        30.08F
HUNTINGTON     PTSUNNY   74  57  55 E6        30.07F
CHARLESTON     PTSUNNY   75  59  57 W3        30.07S
PINEVILLE*     PTSUNNY   75  64  68 MISG      30.15F
BECKLEY        MOSUNNY   73  55  53 VRB3      30.11F
BLUEFIELD      PTSUNNY   76  58  53 VRB3      30.12F
$$

VAZ002-007-008-TNZ017-027-036-066-071-251900
...SOUTHWEST VIRGINIA/EAST TENNESSEE...

CITY           SKY/WX    TMP DP  RH WIND       PRES   REMARKS
WISE*          CLOUDY    70  59  68 NE6       30.14S
JONESVILLE*    PTCLDY    77  59  53 CALM      30.09S
ABINGDON*      PTSUNNY   79  61  53 NW6       30.09S
BRISTOL        MOSUNNY   80  62  54 VRB7      30.06F
KNOXVILLE      MOSUNNY   79  63  57 VRB7      30.04F
OAK RIDGE      SUNNY     81  59  47 VRB6      30.05F
CROSSVILLE     SUNNY     77  52  41 NW6       30.08F
NASHVILLE      MOSUNNY   84  58  40 VRB5      30.04F
$$

...KEY TO REMARKS...
VSB - VISIBILITY IN MILES
WCI - WIND CHILL INDEX
HX  - HEAT INDEX

$$


USA.gov is the U.S. government's official web portal to all federal, state and local government web resources and services.